sat.trackr.live / text

‹ back to catalog

GHGSAT-C5

NORAD 52744 · 2022-057N

PAYLOAD ACTIVE UNKNOWN

§ Identity

Operator
Country
CA
Launch date
2022-05-25
Launch site
AFETR
Launch vehicle
Mass (kg)
RCS (m²)

External: N2YO · Heavens-Above · Gunter

§ Orbital elements

Epoch: 2026-05-25T04:32:00.597120Z

Period
93.87 min
Inclination
97.6655°
Eccentricity
0.0006616
Mean motion
15.33991950 rev/d
Perigee alt
459.4 km
Apogee alt
468.4 km
Semi-major
6,842.1 km
B*
1.9590e-4
RAAN
291.5411°
Arg perigee
188.5424°
Mean anomaly
171.5706°
Rev number
22,201

§ Raw data

GHGSAT-C51 52744U 22057N   26145.18889580  .00006361  00000+0  19590-3 0  99952 52744  97.6655 291.5411 0006616 188.5424 171.5706 15.33991950222015

JSON: /api/v1/satellites/52744 · /tle

For live sub-satellite position, see the globe view (requires WebGL).

§ Visibility from observer

Set your observer location to see the next 7 days of passes ≥ 10°. The values pass through the URL so the page stays shareable.

No JS? Fill the form by hand. The geolocation button needs JavaScript.